{"data":{"norad_id":52560,"epoch":"2026-09-20T04:12:25.239168Z","epoch_age_seconds":91360,"freshness":"FRESH","line1":"1 52560U 22051AD  26263.17529212  .00001656  00000+0  58357-4 0  9995","line2":"2 52560  53.1598 319.5614 0001360  70.2403 289.8746 15.35410405241027","mean_motion":15.35410405,"eccentricity":0.000136,"inclination_deg":53.1598,"raan_deg":319.5614,"arg_perigee_deg":70.2403,"mean_anomaly_deg":289.8746,"bstar":5.8357e-5,"rev_number":24102,"period_min":93.785999841521,"perigee_km":458.77180455523,"apogee_km":460.6316966954,"semimajor_km":6837.8387506253,"source":"CELESTRAK","updated_at":"2026-09-20T09:00:40.062519Z"}}